This is the latest recevied weather packets stored in our database for station/object LU8FJH-13. If no packets are shown the sender has not sent any weather packets the latest 10 day(s).
| Time | Temp. | Humidity | Pressure | Rain* | Wind** | Luminosity | Snow |
|---|---|---|---|---|---|---|---|
| 1777452221 | 13.33° C | 66% | 1010.4 hPa | 0 mm | - | - | - |
| 1777451681 | 13.33° C | 66% | 1010.3 hPa | 0 mm | - | - | - |
| 1777451141 | 13.33° C | 66% | 1010.5 hPa | 0 mm | - | - | - |
| 1777450601 | 13.89° C | 66% | 1010.6 hPa | 0 mm | - | - | - |
| 1777450061 | 13.33° C | 67% | 1010.3 hPa | 0 mm | - | - | - |
| 1777449521 | 13.33° C | 67% | 1010.2 hPa | 0 mm | - | - | - |
| 1777448981 | 13.33° C | 69% | 1010.1 hPa | 0 mm | - | - | - |
| 1777448441 | 13.33° C | 69% | 1010.2 hPa | 0 mm | - | - | - |
| 1777447901 | 13.33° C | 70% | 1010.4 hPa | 0 mm | - | - | - |
| 1777447361 | 13.33° C | 70% | 1010.7 hPa | 0 mm | - | - | - |
| 1777446821 | 12.78° C | 70% | 1010.4 hPa | 0 mm | - | - | - |
| 1777446281 | 13.33° C | 70% | 1010.6 hPa | 0 mm | - | - | - |
| 1777445741 | 13.33° C | 69% | 1011 hPa | 0 mm | - | - | - |
| 1777445201 | 13.33° C | 68% | 1010.9 hPa | 0 mm | - | - | - |
| 1777444661 | 13.33° C | 67% | 1011 hPa | 0 mm | - | - | - |
| 1777444121 | 13.89° C | 66% | 1011.3 hPa | 0 mm | - | - | - |
| 1777443581 | 13.89° C | 64% | 1011.3 hPa | 0 mm | - | - | - |
| 1777443041 | 14.44° C | 64% | 1011.1 hPa | 0 mm | - | - | - |
| 1777442501 | 14.44° C | 64% | 1011 hPa | 0 mm | - | - | - |
| 1777441961 | 14.44° C | 64% | 1010.9 hPa | 0 mm | - | - | - |
| 1777441421 | 14.44° C | 64% | 1011.3 hPa | 0 mm | - | - | - |
| 1777440881 | 14.44° C | 64% | 1011 hPa | 0 mm | - | - | - |
| 1777440341 | 14.44° C | 64% | 1011.1 hPa | 0 mm | - | - | - |
| 1777439801 | 14.44° C | 64% | 1011 hPa | 0 mm | - | - | - |
| 1777439261 | 14.44° C | 64% | 1011.2 hPa | 0 mm | - | - | - |
* Rain latest hour (hover to see other rain measurements)
** Current wind speed in m/s (hover to see current wind gust speed)